This demonstration page uses our WeatherBlox Daily Observations layout. Learn more.

Left ArrowRight Arrow

38.88101, -77.10428

Hourly Observations for May 2, 2022

Temp ( °F °C ) Dew Point ( °F °C ) Humidity (%) Winds ( mph kmh ) Pressure ( in mb ) Visibility ( mi km ) Precip ( " mm )
12:52 am 00:52 Cloudy 57 13.9 51 10.6 81 81 NE 5 7 30.00 1016 10 16 0.00 0.00
1:38 am 01:38 Cloudy 56 13.3 50 10 81 81 NE 5 7 29.98 1015 10 16 0.00 0.00
1:52 am 01:52 Cloudy 57 13.9 51 10.6 81 81 ENE 5 7 29.97 1015 10 16 0.00 0.00
1:59 am 01:59 Cloudy 57 13.9 50 10 78 78 ENE 5 7 29.98 1015 10 16 0.00 0.00
2:52 am 02:52 Cloudy 57 13.9 51 10.6 81 81 NNE 3 6 29.97 1015 10 16 0.00 0.00
3:27 am 03:27 Cloudy 57 13.9 51 10.6 81 81 N 10 17 29.99 1016 10 16 0.00 0.00
3:52 am 03:52 Cloudy 57 13.9 50 10 78 78 N 5 7 29.98 1015 10 16 0.00 0.00
3:59 am 03:59 Cloudy 57 13.9 50 10 78 78 NNE 6 9 29.99 1016 10 16 0.00 0.00
4:52 am 04:52 Cloudy 56 13.3 50 10 81 81 E 5 7 29.98 1015 10 16 0.00 0.00
5:27 am 05:27 Partly Cloudy 55 12.8 49 9.4 80 80 ENE 5 7 29.97 1015 10 16 0.00 0.00
5:52 am 05:52 Mostly Clear 56 13.3 50 10 81 81 Calm 29.97 1015 10 16 0.00 0.00
6:52 am 06:52 Mostly Sunny 55 12.8 50 10 83 83 NNE 5 7 29.98 1015 10 16 0.00 0.00
7:52 am 07:52 Partly Cloudy 59 15 50 10 72 72 N 7 11 30.01 1016 10 16 0.00 0.00
8:52 am 08:52 Mostly Cloudy 61 16.1 52 11.1 72 72 E 3 6 30.02 1017 10 16 0.00 0.00
9:52 am 09:52 Mostly Cloudy 62 16.7 52 11.1 70 70 ENE 3 6 30.04 1017 10 16 0.00 0.00
10:52 am 10:52 Partly Cloudy 67 19.4 55 12.8 66 66 ENE 3 6 30.04 1017 10 16 0.00 0.00
11:52 am 11:52 Mostly Sunny 72 22.2 56 13.3 57 57 NE 6 9 30.03 1017 10 16 0.00 0.00
12:52 pm 12:52 Mostly Sunny 76 24.4 49 9.4 39 39 N 12 19 30.02 1017 10 16 0.00 0.00
1:52 pm 13:52 Partly Cloudy 77 25 48 8.9 36 36 NNE 7 11 30.01 1016 10 16 0.00 0.00
2:52 pm 14:52 Partly Cloudy 76 24.4 48 8.9 37 37 VRB 5 7 30.00 1016 10 16 0.00 0.00
3:52 pm 15:52 Mostly Sunny 77 25 51 10.6 40 40 SSE 7 11 29.97 1015 10 16 0.00 0.00
4:52 pm 16:52 Mostly Sunny 78 25.6 49 9.4 36 36 SSE 5 7 29.96 1015 10 16 0.00 0.00
5:52 pm 17:52 Mostly Sunny 79 26.1 50 10 36 36 S 3 6 29.96 1015 10 16 0.00 0.00
6:52 pm 18:52 Mostly Sunny 77 25 51 10.6 40 40 E 3 6 29.96 1015 10 16 0.00 0.00
7:52 pm 19:52 Mostly Sunny 76 24.4 50 10 40 40 ENE 6 9 29.98 1015 10 16 0.00 0.00
8:52 pm 20:52 Clear 71 21.7 52 11.1 51 51 ESE 8 13 30.01 1016 10 16 0.00 0.00
9:52 pm 21:52 Clear 70 21.1 50 10 49 49 Calm 30.03 1017 10 16 0.00 0.00
10:52 pm 22:52 Clear 68 20 49 9.4 51 51 S 6 9 30.03 1017 10 16 0.00 0.00
11:52 pm 23:52 Clear 65 18.3 55 12.8 70 70 NNE 3 6 30.03 1017 10 16 0.00 0.00

Powered by AerisWeather